Find Starlink 4730

NORAD ID: 53794 Int'l Des: 2022-111 Owner: SPXS Country: US Constellation: starlink operational
LEOCIRCULAR

Live Position

Loading 3D Globe...

About Starlink 4730

Description loading...

Upcoming Passes

Passes for default location (London). Set your location on the main map for personalized predictions.

Altitude History

Loading altitude history...

Two-Line Element Set

1 53794U 22111X 26110.19157161 -.00000225 00000-0 39741-5 0 9995
2 53794 53.2165 87.6582 0001361 86.2402 273.8746 15.08834976199952
Epoch: Apr 20, 2026 • Age: 17 hours

Current Status

Altitude 549.9 km
Velocity 7.59 km/s
Sub-Earth Point -30.90°S, 119.98°E
Launch Date Sep 11, 2022
Age 3.6 years
Type internet

Technical Details

Classification Payload
Mass 305.00 kg
Dry Mass 290.00 kg
Total Mass 305.00 kg
Length 0.20 m
Diameter 2.80 m
Span 9.00 m
Shape Box + pan
Manufacturer SPXS
Bus Type Starlink
Phase Status In Orbit
Owner/State SPXS/US

Most Searched